Zurück zum Katalog

SIMORGH NO. 7 STAGE 2

AktivLEO
NORAD 58851·ROCKET BODY·🇮🇷 Iran
Dieser Satellitenname wurde noch nicht durch offizielle Quellen bestätigt.

Gestartet Jan 28, 2024 von Semnan Space Center

Loading…

Nächste Überflüge (nächste 24 Stunden)

TLE

AktuellSource: Space-Track

Epoche: Sep 14, 2026, 14:57 UTC

1 58851U 24018C   26257.62332787  .00001035  00000-0  13576-3 0  9996
2 58851  58.6845 269.0869 0418493 213.3643 144.0367 14.41425523138183

Verfolge SIMORGH NO. 7 STAGE 2 in Echtzeit mit AllMySat

Download on the App Store